Temp
-16 -16 -16 -16 -16 -16 -16 -17 -16 -15 -16 -16 -16 -16 -16 -16 -16 -16 -16 -16 -16 -16 -17 -16 -16 -16 -16 -15 -15 -14 -15 -15 -15 -16 -15 -15 -15 -16 -16 -16 -17 -16 -17 -17
-16 -16 -16 -16 -16 -16 -16 -16 -16 -16 -16 -16 -16 -16 -16 -16 -16 -16 -17 -16 -16 -16 -17 -15 -15 -15 -16 -16 -16 -15 -15 -15 -15 -15 -15 -15 -15 -16 -16 -17 -17 -17 -17 -18
-15 -17 -16 -16 -15 -16 -16 -16 -17 -17 -16 -17 -16 -16 -16 -16 -16 -16 -16 -15 -15 -16 -16 -16 -15 -15 -16 -16 -16 -16 -15 -15 -15 -15 -15 -15 -15 -16 -16 -16 -16 -17 -17 -18
-17 -17 -16 -15 -16 -16 -16 -16 -17 -17 -17 -17 -17 -17 -17 -17 -16 -15 -16 -15 -15 -16 -16 -15 -15 -15 -15 -15 -15 -15 -15 -15 -15 -15 -15 -15 -16 -16 -16 -16 -17 -18 -18 -18
-18 -17 -16 -15 -16 -16 -17 -17 -17 -17 -17 -17 -17 -17 -17 -16 -17 -17 -17 -17 -15 -16 -16 -16 -15 -15 -15 -15 -16 -16 -16 -16 -16 -16 -16 -16 -16 -16 -16 -17 -17 -17 -17 -18
-18 -17 -15 -15 -17 -16 -16 -16 -16 -16 -17 -17 -16 -17 -17 -16 -16 -16 -16 -16 -15 -16 -16 -16 -16 -15 -15 -15 -15 -16 -16 -16 -16 -16 -16 -16 -16 -16 -17 -17 -17 -17 -18 -18
-18 -17 -16 -16 -17 -17 -17 -15 -16 -16 -16 -17 -17 -17 -17 -17 -16 -16 -16 -16 -16 -16 -16 -16 -16 -15 -15 -15 -15 -16 -16 -16 -16 -16 -16 -16 -16 -17 -17 -17 -17 -17 -18 -18
-18 -18 -17 -18 -18 -17 -16 -17 -17 -18 -17 -17 -17 -17 -17 -17 -17 -16 -16 -17 -17 -17 -16 -16 -16 -16 -16 -16 -16 -16 -16 -16 -16 -16 -16 -17 -17 -17 -17 -17 -18 -18 -18 -18
-19 -19 -19 -18 -18 -17 -17 -17 -18 -17 -17 -17 -17 -17 -17 -17 -17 -16 -17 -17 -17 -17 -16 -16 -16 -16 -16 -16 -17 -17 -17 -17 -17 -17 -17 -17 -18 -18 -18 -18 -18 -18 -18 -19
-19 -18 -18 -18 -18 -18 -18 -17 -18 -17 -16 -16 -17 -18 -18 -18 -17 -17 -16 -17 -17 -17 -16 -16 -17 -17 -17 -17 -17 -17 -17 -17 -17 -17 -17 -18 -18 -18 -18 -18 -18 -18 -19 -19
-19 -19 -19 -18 -18 -18 -17 -17 -17 -17 -17 -17 -17 -17 -18 -18 -17 -17 -17 -18 -17 -17 -17 -17 -17 -17 -17 -17 -17 -17 -17 -18 -18 -18 -18 -18 -18 -18 -18 -19 -19 -19 -19 -19
-19 -20 -19 -18 -18 -18 -18 -17 -17 -17 -17 -17 -18 -18 -17 -18 -18 -17 -17 -17 -17 -17 -17 -17 -18 -18 -18 -18 -18 -18 -18 -18 -18 -18 -18 -18 -18 -18 -19 -19 -19 -19 -19 -19
-19 -19 -19 -19 -18 -18 -17 -17 -17 -17 -18 -17 -17 -18 -18 -18 -18 -18 -18 -18 -18 -18 -18 -18 -18 -18 -18 -18 -18 -18 -18 -19 -19 -19 -19 -19 -19 -19 -18 -19 -19 -19 -20 -20
-19 -19 -19 -19 -18 -18 -17 -17 -17 -17 -17 -17 -17 -17 -18 -18 -18 -18 -18 -18 -18 -19 -18 -18 -18 -18 -18 -18 -18 -18 -18 -19 -19 -19 -19 -19 -19 -19 -20 -20 -20 -20 -20 -21
-20 -19 -19 -20 -19 -19 -19 -19 -19 -18 -18 -17 -17 -17 -17 -18 -18 -18 -18 -18 -18 -19 -19 -19 -19 -19 -19 -18 -18 -19 -18 -19 -19 -19 -19 -19 -20 -20 -20 -20 -21 -21 -21 -22
-21 -20 -20 -20 -20 -20 -20 -20 -20 -19 -18 -17 -17 -17 -18 -18 -19 -19 -19 -19 -19 -19 -19 -18 -18 -18 -18 -18 -19 -19 -19 -19 -19 -19 -19 -19 -20 -20 -20 -20 -21 -21 -22 -22
-21 -21 -20 -20 -20 -20 -20 -20 -19 -19 -19 -19 -19 -19 -19 -20 -20 -20 -19 -19 -19 -18 -19 -19 -18 -18 -18 -19 -19 -19 -19 -19 -19 -20 -20 -20 -20 -20 -21 -21 -22 -22 -23 -23
-21 -21 -20 -20 -20 -20 -20 -19 -19 -19 -19 -19 -19 -19 -19 -19 -19 -19 -19 -18 -18 -19 -19 -19 -19 -19 -19 -19 -20 -20 -20 -20 -20 -20 -20 -21 -21 -22 -22 -22 -23 -23 -23 -23
-21 -21 -21 -20 -20 -19 -19 -19 -19 -19 -18 -19 -19 -19 -19 -19 -19 -19 -19 -19 -19 -19 -20 -20 -20 -20 -20 -20 -20 -20 -20 -20 -21 -21 -21 -21 -22 -22 -23 -23 -23 -23 -24 -24
-21 -21 -21 -21 -20 -19 -19 -19 -19 -19 -19 -19 -19 -19 -19 -19 -19 -19 -19 -19 -20 -20 -20 -20 -20 -20 -20 -20 -20 -21 -21 -21 -21 -22 -22 -23 -23 -23 -24 -24 -24 -24 -24 -25
-21 -21 -20 -20 -20 -19 -19 -19 -19 -19 -19 -19 -19 -19 -19 -19 -19 -20 -20 -20 -20 -20 -20 -20 -20 -21 -21 -21 -21 -22 -22 -22 -22 -23 -23 -23 -24 -24 -24 -24 -25 -25 -25 -25
-21 -21 -21 -20 -20 -20 -20 -20 -20 -19 -19 -19 -20 -20 -20 -20 -20 -20 -20 -20 -21 -21 -21 -21 -21 -21 -22 -22 -22 -22 -23 -23 -23 -24 -24 -24 -25 -25 -25 -25 -25 -25 -26 -27
-21 -21 -21 -21 -20 -20 -20 -20 -20 -20 -20 -20 -21 -21 -21 -21 -21 -21 -21 -21 -22 -22 -22 -22 -22 -22 -22 -23 -23 -23 -24 -24 -24 -25 -25 -25 -25 -25 -25 -26 -26 -28 -29 -30
-21 -21 -21 -21 -20 -20 -21 -21 -21 -21 -21 -21 -21 -21 -21 -21 -22 -22 -22 -22 -22 -22 -23 -23 -23 -23 -24 -24 -24 -25 -25 -26 -26 -26 -26 -26 -26 -27 -28 -29 -30 -30 -30 -31
-21 -21 -21 -21 -21 -21 -21 -21 -21 -21 -21 -21 -22 -22 -22 -22 -22 -22 -22 -23 -23 -23 -24 -24 -24 -25 -25 -26 -26 -26 -26 -26 -27 -27 -27 -28 -29 -30 -30 -31 -31 -31 -32 -32
-22 -22 -22 -22 -22 -22 -22 -22 -22 -22 -22 -22 -22 -22 -23 -23 -23 -23 -24 -24 -25 -25 -26 -26 -26 -27 -27 -27 -27 -27 -27 -28 -28 -29 -30 -31 -31 -31 -32 -32 -32 -33 -33 -33
-22 -22 -22 -22 -22 -23 -23 -23 -23 -23 -23 -24 -24 -24 -25 -25 -25 -26 -26 -26 -27 -27 -27 -28 -28 -28 -28 -28 -28 -29 -30 -31 -31 -31 -32 -32 -32 -33 -33 -33 -33 -34 -35 -36
Height
5642 5647 5649 5652 5659 5663 5667 5673 5674 5682 5680 5686 5689 5690 5693 5694 5693 5693 5692 5693 5698 5697 5699 5698 5698 5697 5697 5697 5698 5697 5695 5695 5696 5696 5694 5690 5689 5685 5684 5685 5682 5679 5676 5675
5632 5638 5641 5643 5648 5656 5660 5663 5667 5672 5673 5679 5682 5684 5685 5686 5687 5689 5688 5688 5691 5690 5691 5692 5692 5691 5690 5688 5688 5689 5689 5688 5689 5688 5685 5683 5681 5677 5676 5673 5672 5670 5667 5664
5623 5630 5633 5634 5643 5648 5649 5655 5659 5663 5670 5673 5674 5676 5677 5679 5679 5682 5682 5682 5684 5684 5681 5682 5684 5685 5684 5683 5682 5682 5682 5683 5682 5680 5678 5676 5673 5671 5669 5666 5663 5660 5658 5655
5614 5621 5621 5629 5639 5642 5646 5651 5654 5657 5660 5662 5665 5667 5669 5671 5672 5673 5674 5675 5678 5678 5678 5677 5677 5678 5678 5677 5677 5676 5675 5673 5671 5668 5665 5663 5661 5660 5658 5655 5652 5649 5647 5643
5607 5612 5617 5621 5632 5633 5636 5642 5649 5652 5655 5656 5658 5660 5661 5664 5667 5669 5670 5670 5671 5673 5672 5671 5671 5670 5670 5669 5669 5668 5667 5665 5663 5661 5658 5655 5653 5650 5647 5644 5642 5639 5635 5631
5600 5603 5607 5614 5625 5627 5628 5633 5641 5643 5647 5652 5653 5653 5656 5659 5661 5662 5663 5664 5665 5665 5664 5664 5663 5663 5662 5661 5659 5658 5656 5654 5652 5649 5647 5645 5643 5640 5637 5635 5631 5627 5623 5620
5593 5596 5600 5607 5615 5619 5621 5632 5631 5633 5640 5645 5644 5646 5649 5650 5653 5655 5654 5656 5656 5657 5656 5655 5654 5653 5653 5653 5651 5650 5647 5645 5642 5639 5637 5634 5632 5630 5627 5623 5619 5615 5612 5609
5588 5589 5592 5600 5606 5609 5616 5618 5623 5625 5629 5633 5635 5636 5639 5641 5645 5646 5647 5647 5647 5647 5647 5647 5645 5643 5642 5641 5641 5640 5638 5636 5633 5630 5627 5623 5621 5617 5614 5610 5606 5602 5599 5595
5581 5584 5586 5593 5599 5601 5606 5610 5614 5619 5620 5622 5626 5628 5632 5636 5638 5637 5638 5638 5638 5638 5638 5638 5637 5636 5635 5633 5630 5628 5626 5624 5621 5618 5615 5611 5608 5604 5600 5596 5593 5590 5586 5581
5573 5576 5578 5583 5588 5593 5597 5599 5603 5610 5613 5613 5616 5618 5622 5624 5628 5628 5627 5628 5628 5628 5629 5629 5628 5627 5626 5624 5621 5618 5616 5613 5610 5607 5603 5600 5596 5592 5588 5584 5580 5576 5571 5566
5566 5569 5569 5574 5578 5584 5588 5590 5594 5598 5601 5605 5607 5610 5611 5613 5617 5616 5616 5616 5617 5617 5618 5618 5617 5615 5614 5611 5609 5605 5603 5600 5597 5593 5589 5586 5582 5578 5574 5569 5563 5558 5553 5548
5558 5563 5561 5567 5571 5574 5577 5581 5583 5587 5590 5593 5597 5599 5601 5602 5603 5604 5604 5604 5605 5606 5607 5606 5604 5602 5599 5597 5594 5591 5588 5585 5581 5577 5574 5570 5566 5562 5558 5553 5547 5540 5535 5530
5550 5554 5556 5558 5562 5566 5568 5571 5575 5579 5582 5585 5585 5588 5589 5591 5591 5593 5595 5595 5594 5594 5593 5591 5589 5587 5585 5583 5580 5577 5573 5569 5565 5561 5557 5553 5549 5545 5540 5534 5529 5522 5516 5509
5541 5545 5550 5552 5554 5558 5561 5562 5566 5569 5572 5574 5576 5577 5579 5581 5581 5581 5581 5581 5579 5578 5577 5575 5573 5571 5568 5566 5563 5561 5557 5554 5549 5545 5541 5536 5531 5526 5521 5515 5509 5503 5496 5489
5533 5538 5543 5545 5547 5549 5551 5553 5555 5558 5559 5562 5564 5566 5566 5567 5567 5566 5566 5566 5565 5563 5562 5560 5559 5556 5553 5550 5547 5542 5539 5535 5531 5527 5522 5517 5512 5507 5501 5494 5488 5481 5475 5468
5525 5529 5532 5537 5540 5542 5542 5544 5547 5548 5549 5551 5553 5553 5554 5554 5553 5552 5551 5550 5550 5549 5548 5546 5543 5539 5536 5533 5530 5526 5522 5517 5512 5507 5502 5497 5492 5487 5481 5474 5467 5460 5453 5447
5518 5521 5524 5527 5530 5532 5533 5535 5537 5538 5539 5541 5542 5542 5542 5541 5541 5541 5540 5539 5538 5535 5532 5529 5526 5523 5519 5516 5513 5509 5504 5500 5495 5490 5484 5478 5473 5466 5459 5452 5446 5440 5433 5426
5508 5512 5515 5517 5519 5521 5523 5526 5528 5529 5530 5531 5532 5532 5532 5531 5530 5528 5526 5524 5522 5519 5517 5513 5510 5507 5503 5500 5496 5492 5488 5483 5477 5472 5466 5459 5452 5447 5441 5434 5427 5420 5413 5405
5500 5504 5506 5508 5510 5512 5513 5514 5516 5518 5520 5520 5521 5521 5519 5518 5516 5514 5512 5510 5508 5505 5502 5499 5496 5492 5488 5484 5480 5475 5470 5465 5459 5454 5448 5442 5436 5429 5423 5416 5408 5400 5391 5382
5492 5495 5496 5499 5501 5503 5505 5506 5507 5508 5508 5508 5508 5507 5505 5504 5502 5500 5498 5496 5494 5491 5488 5484 5480 5476 5472 5467 5463 5458 5453 5447 5442 5436 5430 5423 5416 5409 5402 5394 5385 5376 5365 5355
5485 5487 5489 5491 5492 5493 5494 5494 5494 5495 5495 5495 5495 5494 5492 5491 5489 5486 5484 5482 5480 5476 5472 5468 5464 5460 5456 5451 5446 5441 5435 5429 5423 5417 5410 5403 5395 5387 5378 5368 5359 5349 5338 5326
5478 5480 5481 5482 5483 5483 5483 5483 5483 5483 5483 5483 5482 5481 5480 5478 5475 5473 5471 5469 5464 5460 5456 5452 5448 5443 5438 5434 5429 5423 5417 5410 5403 5396 5388 5380 5371 5362 5353 5342 5332 5320 5308 5295
5472 5473 5474 5475 5475 5474 5474 5473 5472 5471 5471 5470 5469 5468 5467 5465 5462 5460 5457 5453 5449 5445 5440 5436 5431 5426 5421 5415 5410 5404 5397 5389 5381 5373 5365 5356 5346 5336 5325 5314 5302 5290 5278 5267
5462 5464 5464 5463 5463 5464 5463 5463 5462 5460 5459 5458 5457 5455 5453 5451 5448 5445 5441 5437 5433 5429 5424 5418 5413 5407 5402 5396 5389 5383 5376 5368 5358 5349 5339 5329 5318 5306 5295 5284 5273 5261 5251 5240
5453 5453 5453 5453 5453 5454 5452 5451 5450 5448 5447 5446 5444 5442 5439 5435 5432 5428 5425 5421 5416 5411 5406 5400 5395 5389 5382 5376 5368 5360 5352 5343 5334 5324 5313 5302 5291 5280 5269 5259 5247 5236 5223 5212
5444 5443 5443 5442 5442 5441 5441 5440 5439 5437 5435 5433 5431 5427 5424 5420 5416 5413 5409 5405 5400 5394 5389 5383 5376 5369 5362 5354 5346 5338 5329 5319 5309 5300 5290 5279 5269 5257 5245 5233 5222 5210 5199 5187
5434 5432 5431 5431 5431 5430 5429 5427 5425 5423 5422 5419 5416 5413 5409 5405 5401 5396 5392 5386 5381 5376 5370 5363 5357 5349 5342 5333 5324 5315 5307 5298 5288 5278 5268 5257 5246 5234 5223 5211 5200 5188 5178 5169
Wind_Speed
35 26 45 50 47 38 32 32 34 31 36 31 29 26 27 30 28 29 29 26 20 24 20 21 22 21 24 25 22 24 25 25 23 28 31 31 34 33 35 36 37 40 40 40
25 28 49 51 52 44 39 40 36 29 38 30 31 35 30 34 36 32 30 33 31 26 22 12 21 22 26 30 31 27 26 26 27 28 30 32 35 36 39 39 39 41 43 43
33 27 51 55 44 49 43 40 35 35 31 31 27 26 30 33 40 34 35 31 26 22 22 21 12 13 18 24 29 30 28 27 29 31 33 35 36 38 39 40 41 42 43 43
33 34 47 51 39 47 44 36 31 30 28 27 30 28 29 32 35 33 32 33 24 23 26 24 23 20 18 21 24 27 29 31 33 36 38 39 40 42 42 42 42 42 43 43
30 29 33 50 43 34 40 37 31 33 32 28 29 33 36 38 35 37 38 38 33 26 26 31 29 27 26 25 25 27 30 32 33 34 36 39 41 42 42 43 44 46 45 45
35 35 31 41 51 49 37 42 38 38 38 31 30 33 34 31 32 30 32 34 31 26 28 27 30 31 31 31 31 31 33 34 35 36 37 39 40 41 43 45 47 48 47 47
39 39 37 37 53 42 44 42 35 31 30 32 36 38 38 39 35 33 35 32 31 31 31 31 32 32 31 33 35 36 36 37 39 40 41 40 40 42 45 47 48 48 49 50
42 35 38 36 49 55 51 51 48 40 35 36 37 41 37 35 31 33 34 31 33 31 30 31 34 36 36 36 38 38 38 40 40 40 39 39 41 43 44 46 47 47 48 50
38 36 35 36 43 45 44 53 53 50 49 48 43 41 37 35 33 35 35 35 34 34 32 34 36 37 37 37 38 38 40 42 42 41 41 42 44 45 47 48 49 50 52 53
39 41 38 35 39 39 42 41 51 52 55 55 50 45 40 40 34 35 40 39 38 37 39 39 40 40 39 39 40 41 42 41 40 41 43 45 47 48 52 52 52 55 57 58
39 34 36 33 35 40 39 37 36 40 49 51 51 49 46 46 42 42 42 39 40 42 41 40 40 39 40 42 43 42 42 43 44 46 47 49 51 54 55 55 57 59 61 64
38 33 33 29 30 34 40 43 39 34 44 48 47 48 50 51 49 50 52 51 47 46 46 43 43 43 43 43 46 46 47 47 47 48 49 51 54 56 57 59 61 63 61 60
33 38 36 37 37 43 32 36 32 43 41 38 42 50 52 51 49 51 50 52 53 49 51 52 53 54 56 51 50 51 51 50 50 52 55 58 59 61 60 61 70 70 70 72
44 39 32 38 40 40 33 34 39 40 32 40 48 49 54 58 54 51 54 56 51 50 53 54 49 50 57 52 49 52 55 50 55 56 54 58 62 64 65 76 75 77 79 79
45 45 39 38 41 41 35 31 32 32 31 36 41 43 44 44 47 50 51 52 50 47 48 48 49 51 52 51 53 57 59 58 61 61 61 63 66 69 72 79 77 78 79 79
44 42 43 43 35 33 34 31 30 31 34 38 40 44 47 46 45 44 45 46 44 46 50 51 50 51 53 55 57 58 58 58 59 60 63 67 70 71 75 81 78 75 76 77
37 36 40 39 39 34 36 35 33 32 33 34 35 36 38 40 41 42 45 46 47 48 49 51 53 55 56 57 57 57 58 60 63 66 69 72 75 78 78 73 71 71 73 75
40 37 35 37 37 36 36 37 37 36 38 39 41 42 43 44 46 46 46 46 48 50 53 54 54 53 53 54 55 58 62 64 67 69 70 69 67 65 66 68 70 72 75 78
32 36 37 38 40 41 41 42 41 40 42 43 44 44 45 45 45 46 47 47 48 48 48 48 49 52 56 59 61 62 62 61 60 60 62 64 66 68 70 72 75 78 80 84
31 32 32 35 37 39 40 43 46 45 46 47 47 46 46 46 46 47 47 46 45 45 49 51 54 56 57 59 60 61 62 62 62 63 64 66 68 71 74 77 81 84 87 88
37 35 33 35 37 39 41 42 45 48 48 47 44 41 41 43 45 44 42 43 46 50 52 54 56 58 59 60 60 61 61 62 64 67 69 72 75 78 81 83 86 89 93 96
29 34 37 39 39 39 40 40 40 40 41 41 39 39 39 37 36 39 43 47 51 52 53 54 56 58 60 60 61 62 65 67 69 72 75 78 80 83 86 89 93 96 97 96
30 27 30 32 33 31 30 30 29 30 29 30 32 35 38 41 43 46 47 48 50 53 55 57 59 61 62 63 65 67 70 73 74 76 79 83 86 90 93 94 93 91 89 88
30 32 35 30 28 30 30 29 30 32 35 38 40 42 43 44 46 48 51 53 55 57 59 61 62 64 65 68 70 71 73 76 79 83 87 90 90 89 87 86 85 86 87 88
37 37 32 29 29 31 32 33 35 37 39 42 44 45 48 50 52 54 56 58 58 59 60 62 64 65 67 70 74 76 79 83 85 86 85 82 81 81 81 83 83 83 82 81
35 31 28 28 31 33 36 39 41 43 45 47 49 51 52 54 55 56 56 57 58 60 61 63 66 69 72 75 78 81 81 80 77 76 75 75 76 77 78 77 77 77 76 72
25 26 28 31 34 37 38 40 42 43 45 46 48 49 50 52 53 55 57 59 60 62 65 67 70 73 75 76 75 72 69 68 69 70 71 72 72 71 71 72 71 66 59 52
Wind_Direction
231 239 216 216 208 209 228 233 239 239 242 239 238 241 255 256 260 274 277 281 279 286 294 260 265 280 277 273 272 279 285 288 288 288 292 297 296 301 300 294 294 296 294 292
229 227 213 219 214 210 219 224 240 239 240 248 246 239 238 248 257 255 264 272 281 284 290 234 250 266 274 275 278 279 284 290 289 289 292 293 295 299 296 295 293 289 290 292
226 221 214 218 212 211 215 220 222 234 239 238 240 231 235 247 249 254 258 264 278 282 288 294 285 275 272 273 276 282 286 285 287 289 291 292 292 290 289 289 288 289 290 290
228 219 226 222 209 217 222 223 217 222 227 238 238 237 229 240 249 254 265 272 279 279 281 282 281 275 264 267 273 279 282 287 291 293 295 297 296 295 295 294 294 292 290 290
234 235 243 227 217 220 213 211 217 230 228 227 232 238 241 236 244 252 259 264 271 278 273 271 272 273 272 270 270 274 280 284 286 289 291 292 291 291 292 293 292 290 289 290
254 250 237 221 220 229 229 219 225 225 230 233 247 249 256 261 258 259 263 264 271 274 273 266 267 271 274 277 279 281 282 282 285 286 288 290 291 291 291 290 290 290 288 288
246 244 235 232 222 230 240 227 228 226 225 238 249 256 259 263 262 262 263 265 270 270 271 273 271 271 273 276 279 281 282 284 284 285 287 286 286 287 287 287 288 288 288 290
239 238 239 237 230 234 236 233 232 249 241 239 250 252 251 251 251 257 265 264 264 268 270 271 274 274 275 276 277 278 278 279 282 283 283 281 283 283 284 285 285 285 287 288
224 240 256 243 240 245 240 234 235 237 242 241 242 252 259 261 257 255 253 257 265 268 274 278 278 277 277 276 277 278 279 281 286 284 281 280 282 282 283 284 286 287 287 287
232 234 249 248 232 240 242 244 235 236 240 240 242 244 250 254 254 246 252 261 268 271 273 279 281 281 280 279 278 279 280 284 285 285 283 283 282 282 283 285 285 285 286 287
237 239 254 244 240 236 236 240 236 237 238 240 242 245 247 253 251 253 258 256 259 264 272 279 283 284 281 280 279 281 282 284 284 286 286 284 283 284 286 287 286 286 288 290
233 241 247 229 236 236 240 236 245 236 236 239 241 248 250 245 249 255 260 265 269 271 276 280 285 280 282 282 281 281 284 285 285 287 287 288 289 288 290 291 291 290 291 295
234 238 243 244 235 230 243 243 241 231 231 238 246 241 246 251 253 260 262 266 268 269 273 278 280 281 281 281 284 283 283 284 284 286 288 290 291 290 287 289 293 294 294 290
239 243 250 256 251 243 245 242 237 239 245 233 237 242 248 250 253 257 261 264 270 273 276 280 275 271 281 283 283 284 283 283 280 284 281 286 287 289 286 291 286 287 287 288
235 243 254 262 258 260 266 270 271 265 260 257 246 252 257 260 260 262 265 266 272 275 276 280 283 283 284 281 278 274 277 279 280 283 285 286 285 286 285 289 287 287 287 288
231 236 245 247 252 262 264 262 261 252 252 258 263 264 263 264 268 271 273 274 275 278 281 282 281 280 280 280 281 284 286 286 286 287 286 286 286 288 287 288 288 287 286 286
230 235 240 241 248 252 255 259 257 256 258 262 265 267 265 266 270 275 278 279 280 281 282 283 283 282 283 286 288 289 290 290 290 290 290 290 290 288 288 287 287 287 288 289
231 232 232 236 244 249 253 254 252 251 253 257 260 264 269 272 273 275 277 279 280 280 281 283 285 287 288 290 290 290 290 290 289 289 289 290 290 290 291 291 291 292 292 293
229 231 236 239 243 246 250 253 255 257 257 258 263 268 271 273 275 277 278 278 279 281 283 284 287 288 288 288 288 290 291 292 292 293 293 293 293 293 293 293 293 293 293 292
233 229 231 237 242 247 251 253 254 256 259 265 269 273 277 281 282 280 279 279 281 281 285 285 285 286 288 289 290 290 291 292 292 292 292 291 291 292 292 292 292 295 297 298
237 229 230 235 240 244 248 252 255 258 264 270 276 279 279 277 276 277 277 274 275 280 284 284 285 287 289 290 290 290 290 290 290 290 291 291 292 293 296 298 298 299 299 298
228 238 244 249 253 259 264 266 269 271 272 274 271 272 272 272 271 270 272 276 280 283 286 288 288 289 289 288 288 288 289 290 290 292 294 296 297 298 298 299 299 299 298 298
247 248 255 259 256 258 260 257 259 258 257 258 264 266 267 272 276 280 281 283 284 285 285 286 287 288 287 286 288 290 292 294 296 297 297 298 299 300 300 300 300 299 298 299
252 253 258 248 249 254 257 260 262 263 266 269 272 274 276 278 279 280 282 283 285 286 287 288 289 289 290 292 294 296 296 297 299 301 303 303 303 302 301 300 300 300 300 299
251 259 251 251 257 261 266 270 271 272 273 274 276 278 280 281 282 283 285 286 287 288 289 291 292 294 295 296 298 300 302 303 304 304 304 303 302 302 302 302 302 302 302 302
255 249 252 260 268 272 273 274 275 276 277 278 278 279 280 281 282 284 285 287 289 291 293 295 297 299 300 301 303 304 305 305 304 303 303 303 304 305 305 306 306 305 305 305
261 264 266 267 268 270 271 273 274 275 276 278 279 281 283 286 288 289 291 292 294 295 296 298 300 302 303 305 305 304 304 304 305 306 307 308 309 309 310 309 309 309 310 311